Location: Eckley Miners' Village
(40.9930°N, 75.8630°W)
Time: 23:35:23
(UTC-05:00)

ISS - Visible Passes

Search period start: 04 December 2023 00:00
Search period end: 14 December 2023 00:00
Orbit: 415 x 417 km, 51.6° (Epoch: 05 December)

Date Brightness Start Highest point End Pass type
(mag) Time Alt. Az. Time Alt. Az. Time Alt. Az.
04 Dec -3.9 17:42:17 10° NW 17:45:39 86° NE 17:48:44 12° SE visible
04 Dec -0.4 19:21:08 10° WSW 19:21:43 11° SW 19:21:43 11° SW visible
05 Dec -1.0 18:31:06 10° W 18:33:31 19° SW 18:35:56 10° S visible
06 Dec -1.9 17:41:59 10° WNW 17:45:02 32° SW 17:48:03 10° SSE visible
08 Dec -0.3 17:42:40 10° WSW 17:43:56 12° SW 17:45:12 10° SSW visible
